"Pseudo-MPEC" for P11WLoY

Created 2024 Aug 5 23:22:07 UT using Find_Orb

Click here for an explanation of pseudo-MPECs

 
 Astrometry: 
     P11WLoY  C2024 07 27.49247322 05 05.949-24 54 45.43   ~81Kq 19.88GVNEOCPF51
     P11WLoY  C2024 07 27.50255722 05 07.968-24 57 02.18   ~81Kq       VNEOCPF51
     P11WLoY  C2024 07 27.51315522 05 10.106-24 59 25.62   ~81Kq 19.93GVNEOCPF51
     P11WLoY  C2024 07 27.52349922 05 12.201-25 01 45.92   ~81Kq 19.87GVNEOCPF51
     P11WLoY  C2024 07 27.59021122 05 25.808-25 16 46.17   ~81Kq 19.11GVNEOCPF51
     P11WLoY* C2024 08 01.48036322 25 58.457-41 54 19.17   ~81Gq 20.44wXNEOCPF51
     P11WLoY  C2024 08 01.48811022 26 00.133-41 55 41.21   ~81Gq 20.45wXNEOCPF51
     P11WLoY  C2024 08 01.49585022 26 01.853-41 57 04.19   ~81Gq 20.69wXNEOCPF51
     P11WLoY  C2024 08 01.50356722 26 03.547-41 58 27.13   ~81Gq 21.01wXNEOCPF51
     P11WLoY KC2024 08 01.68168822 26 47.578-42 28 30.97   ~81H7 21.0 GVNEOCP474
     P11WLoY KC2024 08 01.68570422 26 48.506-42 29 12.41   ~81H7 20.5 GVNEOCP474
     P11WLoY KC2024 08 01.68971922 26 49.452-42 29 54.35   ~81H7 20.3 GVNEOCP474
     P11WLoY KC2024 08 01.69373522 26 50.407-42 30 36.14   ~81H7 20.4 GVNEOCP474
     P11WLoY KC2024 08 05.64196622 44 33.605-52 28 51.10   ~85G7 20.7 GVNEOCP474
     P11WLoY KC2024 08 05.64455722 44 34.320-52 29 10.57   ~85G7 20.3 GVNEOCP474
     P11WLoY KC2024 08 05.64844222 44 35.218-52 29 40.81   ~85G7 21.4 GVNEOCP474

Station data:
(474) Mount John Observatory, Lake Tekapo  (S43.987385 E170.464960)  New
   Zealand.  Observers A. C. Gilmore, P. M. Kilmartin. Measurer P. M.
   Kilmartin. 1.0-m f/7.7 reflector + CCD.
(F51) Pan-STARRS 1, Haleakala  (N20.707234 W156.255910)  US/Hawaii.
   Observers J. Bulger, T. Lowe, A. Schultz, M. Willman. Measurers K.
   Chambers, S. Chastel, T. de Boer, L. Denneau, J. Fairlamb, H. Flewelling,
   M. Huber, C.-C. Lin, E. Magnier, Y. Ramanjooloo, R. Wainscoat, R. Weryk.
   1.8-m Ritchey-Chrétien + CCD.

Orbital elements:  P11WLoY
   Perihelion 2024 Jul 10.77696 +/- 0.0328 TT = 18:38:49 (JD 2460502.27696)
Epoch 2024 Aug  5.0 TT = JDT 2460527.5   Earth MOID: 0.0906      AutoNEOCP
M  17.14515387 +/- 0.049            (J2000 ecliptic)
n   0.67974172 +/- 0.00109          Peri.  167.68109 +/- 0.029
a   1.28107168 +/- 0.00136          Node   123.73619 +/- 0.0043
e   0.1387052 +/- 0.000758          Incl.   23.03794 +/- 0.049
P   1.450/529.603d         H 23.85  G  0.15   U  8.2
q 1.10338025 +/- 0.000204    Q 1.45876310 +/- 0.00252
From 16 observations 2024 July 27-Aug. 5; mean residual 0".26
Residuals in arcseconds: 
240727 F51  .11+  .42-    240801 F51  .19-  .55+    240801 474  .09+  .03+    
240727 F51  .09-  .10-    240801 F51  .02-  .11+    240805 474  .30-  .08-    
240727 F51  .07-  .32+    240801 F51  .08-  .70-    240805 474  .51+  .33+    
240727 F51  .04+  .24+    240801 474  .12+  .24+    240805 474  .14+  .14-    
240727 F51  .05+  .02-    240801 474  .04-  .49+    
240801 F51  .17+  .19-    240801 474  .01-  .20+    

Ephemerides (geocentric):
Date (UTC) HH   RA             Dec           delta  r     elong  mag " sig PA
---- --------  ------------   ------------  ------ ------ -----  --- --------
2024 08 05 23  22 46 01.943   -53 08 56.79  .12960 1.1147 138.5 21.1 .222  72
2024 08 06 00  22 46 13.407   -53 14 10.05  .12979 1.1148 138.4 21.2 .225  72
2024 08 06 01  22 46 24.875   -53 19 22.20  .12998 1.1148 138.4 21.2 .229  72
2024 08 06 02  22 46 36.346   -53 24 33.25  .13018 1.1148 138.3 21.2 .232  72
2024 08 06 03  22 46 47.821   -53 29 43.21  .13037 1.1149 138.2 21.2 .235  72
2024 08 06 04  22 46 59.299   -53 34 52.08  .13056 1.1149 138.1 21.2 .239  72
2024 08 06 05  22 47 10.780   -53 39 59.86  .13076 1.1149 138.0 21.2 .242  72
2024 08 06 06  22 47 22.265   -53 45 06.55  .13095 1.1150 138.0 21.2 .246  72
2024 08 06 07  22 47 33.753   -53 50 12.16  .13115 1.1150 137.9 21.2 .249  72
2024 08 06 08  22 47 45.245   -53 55 16.68  .13134 1.1151 137.8 21.2 .252  72
2024 08 06 09  22 47 56.739   -54 00 20.13  .13154 1.1151 137.7 21.2 .256  73
2024 08 06 10  22 48 08.237   -54 05 22.50  .13173 1.1151 137.6 21.2 .259  73
2024 08 06 11  22 48 19.738   -54 10 23.80  .13193 1.1152 137.5 21.2 .262  73
2024 08 06 12  22 48 31.242   -54 15 24.03  .13213 1.1152 137.5 21.2 .266  73
2024 08 06 13  22 48 42.749   -54 20 23.19  .13232 1.1152 137.4 21.2 .269  73
2024 08 06 14  22 48 54.259   -54 25 21.28  .13252 1.1153 137.3 21.2 .273  73
2024 08 06 15  22 49 05.772   -54 30 18.32  .13272 1.1153 137.2 21.2 .276  73
2024 08 06 16  22 49 17.288   -54 35 14.29  .13292 1.1153 137.2 21.2 .279  73
2024 08 06 17  22 49 28.807   -54 40 09.21  .13312 1.1154 137.1 21.2 .283  73
2024 08 06 18  22 49 40.329   -54 45 03.08  .13331 1.1154 137.0 21.2 .286  73
2024 08 06 19  22 49 51.854   -54 49 55.89  .13351 1.1155 136.9 21.3 .290  73
2024 08 06 20  22 50 03.381   -54 54 47.66  .13371 1.1155 136.8 21.3 .293  73
2024 08 06 21  22 50 14.911   -54 59 38.38  .13391 1.1155 136.8 21.3 .297  73
2024 08 06 22  22 50 26.444   -55 04 28.06  .13411 1.1156 136.7 21.3 .300  73
2024 08 06 23  22 50 37.980   -55 09 16.70  .13431 1.1156 136.6 21.3 .303  74
2024 08 07 00  22 50 49.518   -55 14 04.30  .13451 1.1156 136.5 21.3 .307  74
2024 08 07 01  22 51 01.059   -55 18 50.88  .13472 1.1157 136.5 21.3 .310  74
2024 08 07 02  22 51 12.602   -55 23 36.42  .13492 1.1157 136.4 21.3 .314  74
2024 08 07 03  22 51 24.148   -55 28 20.93  .13512 1.1157 136.3 21.3 .317  74
2024 08 07 04  22 51 35.696   -55 33 04.42  .13532 1.1158 136.2 21.3 .321  74
2024 08 07 05  22 51 47.247   -55 37 46.89  .13552 1.1158 136.1 21.3 .324  74
2024 08 07 06  22 51 58.800   -55 42 28.33  .13573 1.1159 136.1 21.3 .328  74
2024 08 07 07  22 52 10.356   -55 47 08.77  .13593 1.1159 136.0 21.3 .331  74
2024 08 07 08  22 52 21.913   -55 51 48.19  .13613 1.1159 135.9 21.3 .334  75
2024 08 07 09  22 52 33.473   -55 56 26.59  .13634 1.1160 135.8 21.3 .338  75
2024 08 07 10  22 52 45.036   -56 01 04.00  .13654 1.1160 135.8 21.3 .341  75
2024 08 07 11  22 52 56.600   -56 05 40.39  .13674 1.1160 135.7 21.3 .345  75
2024 08 07 12  22 53 08.166   -56 10 15.79  .13695 1.1161 135.6 21.3 .348  75
2024 08 07 13  22 53 19.735   -56 14 50.19  .13715 1.1161 135.5 21.3 .352  75
2024 08 07 14  22 53 31.306   -56 19 23.59  .13736 1.1162 135.5 21.3 .355  75
2024 08 07 15  22 53 42.879   -56 23 56.00  .13756 1.1162 135.4 21.4 .359  75
2024 08 07 16  22 53 54.453   -56 28 27.42  .13777 1.1162 135.3 21.4 .362  76
2024 08 07 17  22 54 06.030   -56 32 57.85  .13798 1.1163 135.2 21.4 .366  76
2024 08 07 18  22 54 17.608   -56 37 27.30  .13818 1.1163 135.2 21.4 .369  76
2024 08 07 19  22 54 29.189   -56 41 55.77  .13839 1.1163 135.1 21.4 .373  76
2024 08 07 20  22 54 40.771   -56 46 23.26  .13860 1.1164 135.0 21.4 .376  76
2024 08 07 21  22 54 52.355   -56 50 49.78  .13880 1.1164 134.9 21.4 .380  76
2024 08 07 22  22 55 03.940   -56 55 15.32  .13901 1.1165 134.9 21.4 .383  76